Regional Weather Roundup
Issued by NWS

Home | Current Version | Previous Version | Text Only | Print | Product List | Glossary Off
Versions: 1 2 3 4 5 6 7 8 9 10 11 12 13 14 15 16 17 18 19 20 21 22 23 24 25 26 27 28

000
ASUS45 KBOI 192210
RWRID

IDAHO REGIONAL WEATHER ROUNDUP
NATIONAL WEATHER SERVICE BOISE ID
300 PM MST SUN NOV 19 2017

NOTE: "FAIR" INDICATES FEW OR NO CLOUDS BELOW 12000 FEET
WITH NO SIGNIFICANT WEATHER AND/OR OBSTRUCTIONS TO VISIBILITY

IDZ012-014-192300-
SOUTHWEST IDAHO


CITY           SKY/WX    TMP DP  RH WIND       PRES   REMARKS
BOISE          PTSUNNY   49  24  37 S10       30.06F
CALDWELL       PTSUNNY   48  27  44 SE12      30.07F
MOUNTAIN HOME  MOSUNNY   47  28  49 SE16      30.05F
$$

IDZ016-017-192300-
SOUTHCENTRAL IDAHO


CITY           SKY/WX    TMP DP  RH WIND       PRES   REMARKS
BURLEY         SUNNY     48  23  37 CALM      30.06F
JEROME         SUNNY     45  27  49 NE13      30.08F
TWIN FALLS     SUNNY     45  29  53 NE5       30.07F
$$

IDZ019>023-192300-
SOUTHEAST IDAHO


CITY           SKY/WX    TMP DP  RH WIND       PRES   REMARKS
IDAHO FALLS    MOSUNNY   40  23  50 W3        30.12F
POCATELLO      SUNNY     46  25  43 NE3       30.10F
REXBURG        SUNNY     37  21  52 NE6       30.11F WCI  32
$$

IDZ006-010-011-018-031-032-192300-
CENTRAL IDAHO MOUNTAINS


CITY           SKY/WX    TMP DP  RH WIND       PRES   REMARKS
MCCALL         CLOUDY    35  19  52 CALM      30.00F
HAILEY         MOSUNNY   39  19  45 S3        30.10F
STANLEY          N/A     22  14  71 N3        30.04F
SALMON         CLOUDY    39  20  46 NW5       30.00F
CHALLIS        MOSUNNY   38  17  42 NE5       30.02F WCI  34
$$

IDZ002-004-006-007-026-192300-
NORTHERN IDAHO


CITY           SKY/WX    TMP DP  RH WIND       PRES   REMARKS
LEWISTON       CLOUDY    50  31  48 E9        29.88F
LOWELL           N/A     40  35  83 N5        29.98F
COEUR D`ALENE  CLOUDY    44  27  51 S9        29.85F
MULLAN PASS    PTSUNNY   28  18  66 SW8       29.81F WCI  20
$$




USA.gov is the U.S. government's official web portal to all federal, state and local government web resources and services.